TimeCST,TemperatureF,Dew PointF,Humidity,Sea Level PressureIn,VisibilityMPH,Wind Direction,Wind SpeedMPH,Gust SpeedMPH,PrecipitationIn,Events,Conditions,WindDirDegrees,DateUTC
12:15 AM,48.2,30.2,50,29.94,10.0,SSW,19.6,24.2,N/A,,Clear,210,2012-11-21 06:15:00
12:35 AM,48.2,30.2,50,29.93,10.0,SSW,19.6,-,N/A,,Clear,210,2012-11-21 06:35:00
12:55 AM,48.2,30.2,50,29.93,10.0,SSW,19.6,-,N/A,,Clear,210,2012-11-21 06:55:00
1:15 AM,46.4,32.0,57,29.93,10.0,SSW,20.7,-,N/A,,Clear,210,2012-11-21 07:15:00
1:35 AM,46.4,32.0,57,29.92,10.0,SSW,20.7,-,N/A,,Clear,210,2012-11-21 07:35:00
1:55 AM,46.4,32.0,57,29.92,10.0,SSW,20.7,-,N/A,,Clear,210,2012-11-21 07:55:00
2:15 AM,46.4,32.0,57,29.92,10.0,SSW,17.3,23.0,N/A,,Clear,210,2012-11-21 08:15:00
2:35 AM,44.6,32.0,61,29.92,10.0,SSW,17.3,-,N/A,,Clear,210,2012-11-21 08:35:00
2:55 AM,44.6,32.0,61,29.93,10.0,SSW,15.0,-,N/A,,Clear,210,2012-11-21 08:55:00
3:15 AM,44.6,32.0,61,29.92,10.0,SSW,16.1,-,N/A,,Clear,210,2012-11-21 09:15:00
3:35 AM,44.6,32.0,61,29.92,10.0,SSW,13.8,-,N/A,,Clear,200,2012-11-21 09:35:00
3:55 AM,44.6,32.0,61,29.92,10.0,SSW,13.8,-,N/A,,Clear,200,2012-11-21 09:55:00
4:15 AM,44.6,32.0,61,29.91,10.0,SSW,12.7,-,N/A,,Clear,210,2012-11-21 10:15:00
4:35 AM,44.6,32.0,61,29.91,10.0,SSW,11.5,-,N/A,,Clear,210,2012-11-21 10:35:00
4:55 AM,44.6,32.0,61,29.91,10.0,SW,9.2,-,N/A,,Clear,220,2012-11-21 10:55:00
5:15 AM,42.8,32.0,66,29.90,10.0,SSW,10.4,-,N/A,,Clear,210,2012-11-21 11:15:00
5:35 AM,42.8,32.0,66,29.91,10.0,SW,9.2,-,N/A,,Clear,220,2012-11-21 11:35:00
5:55 AM,42.8,32.0,66,29.90,10.0,SSW,8.1,-,N/A,,Clear,210,2012-11-21 11:55:00
6:15 AM,42.8,32.0,66,29.90,10.0,SSW,10.4,-,N/A,,Clear,210,2012-11-21 12:15:00
6:35 AM,44.6,33.8,66,29.91,10.0,SW,5.8,-,N/A,,Clear,220,2012-11-21 12:35:00
6:55 AM,42.8,33.8,70,29.91,10.0,NNE,3.5,-,N/A,,Clear,20,2012-11-21 12:55:00
7:15 AM,44.6,33.8,66,29.90,10.0,SSW,5.8,-,N/A,,Clear,210,2012-11-21 13:15:00
7:35 AM,44.6,33.8,66,29.91,10.0,SW,9.2,-,N/A,,Clear,220,2012-11-21 13:35:00
7:55 AM,42.8,32.0,66,29.91,10.0,SSW,5.8,-,N/A,,Clear,210,2012-11-21 13:55:00
8:15 AM,42.8,33.8,70,29.91,10.0,SSW,9.2,-,N/A,,Clear,210,2012-11-21 14:15:00
8:35 AM,44.6,33.8,66,29.90,10.0,SSW,10.4,-,N/A,,Clear,210,2012-11-21 14:35:00
8:55 AM,46.4,33.8,62,29.91,10.0,SSW,9.2,-,N/A,,Clear,210,2012-11-21 14:55:00
9:15 AM,48.2,35.6,62,29.90,10.0,SW,9.2,-,N/A,,Clear,220,2012-11-21 15:15:00
9:35 AM,50.0,35.6,58,29.89,10.0,SSW,10.4,-,N/A,,Clear,210,2012-11-21 15:35:00
9:55 AM,51.8,35.6,54,29.89,10.0,SSW,12.7,-,N/A,,Clear,210,2012-11-21 15:55:00
10:15 AM,53.6,35.6,51,29.89,10.0,SW,8.1,-,N/A,,Clear,220,2012-11-21 16:15:00
10:35 AM,55.4,35.6,47,29.88,10.0,SSW,11.5,-,N/A,,Clear,210,2012-11-21 16:35:00
10:55 AM,55.4,35.6,47,29.88,10.0,SSW,11.5,-,N/A,,Clear,210,2012-11-21 16:55:00
11:15 AM,57.2,35.6,44,29.86,10.0,SSW,16.1,-,N/A,,Clear,200,2012-11-21 17:15:00
11:35 AM,59.0,35.6,42,29.85,10.0,SSW,20.7,24.2,N/A,,Clear,200,2012-11-21 17:35:00
11:55 AM,57.2,35.6,44,29.84,10.0,SSW,13.8,-,N/A,,Clear,200,2012-11-21 17:55:00
12:15 PM,59.0,33.8,39,29.83,10.0,SSW,13.8,-,N/A,,Clear,210,2012-11-21 18:15:00
12:35 PM,60.8,33.8,36,29.81,10.0,South,15.0,-,N/A,,Clear,190,2012-11-21 18:35:00
12:55 PM,64.4,35.6,34,29.80,10.0,SSW,13.8,-,N/A,,Clear,200,2012-11-21 18:55:00
1:15 PM,66.2,35.6,32,29.79,10.0,South,13.8,-,N/A,,Clear,190,2012-11-21 19:15:00
1:35 PM,64.4,35.6,34,29.78,10.0,South,13.8,-,N/A,,Clear,180,2012-11-21 19:35:00
1:55 PM,66.2,37.4,35,29.77,10.0,South,16.1,20.7,N/A,,Clear,190,2012-11-21 19:55:00
2:15 PM,66.2,35.6,32,29.76,10.0,SSW,18.4,24.2,N/A,,Clear,200,2012-11-21 20:15:00
2:35 PM,66.2,35.6,32,29.74,10.0,SSW,19.6,26.5,N/A,,Clear,200,2012-11-21 20:35:00
2:55 PM,66.2,35.6,32,29.73,10.0,South,20.7,28.8,N/A,,Clear,190,2012-11-21 20:55:00
3:15 PM,66.2,35.6,32,29.73,10.0,SSW,16.1,-,N/A,,Clear,200,2012-11-21 21:15:00
3:35 PM,68.0,35.6,30,29.73,10.0,SSW,19.6,-,N/A,,Clear,200,2012-11-21 21:35:00
3:55 PM,66.2,35.6,32,29.72,10.0,South,16.1,23.0,N/A,,Clear,190,2012-11-21 21:55:00
4:15 PM,66.2,33.8,30,29.72,10.0,South,10.4,-,N/A,,Clear,180,2012-11-21 22:15:00
4:35 PM,64.4,33.8,32,29.71,10.0,South,12.7,-,N/A,,Clear,180,2012-11-21 22:35:00
4:55 PM,64.4,33.8,32,29.70,10.0,SSE,9.2,-,N/A,,Clear,160,2012-11-21 22:55:00
5:15 PM,62.6,35.6,37,29.70,10.0,South,11.5,-,N/A,,Clear,170,2012-11-21 23:15:00
5:35 PM,62.6,35.6,37,29.70,10.0,South,11.5,-,N/A,,Clear,170,2012-11-21 23:35:00
5:55 PM,60.8,37.4,42,29.69,10.0,SSE,10.4,-,N/A,,Clear,160,2012-11-21 23:55:00
6:15 PM,60.8,37.4,42,29.69,10.0,South,11.5,-,N/A,,Clear,170,2012-11-22 00:15:00
6:35 PM,60.8,37.4,42,29.68,10.0,South,17.3,-,N/A,,Clear,190,2012-11-22 00:35:00
6:55 PM,62.6,37.4,39,29.68,10.0,SSW,17.3,26.5,N/A,,Clear,200,2012-11-22 00:55:00
7:15 PM,60.8,37.4,42,29.67,10.0,SSW,17.3,23.0,N/A,,Clear,200,2012-11-22 01:15:00
7:35 PM,60.8,37.4,42,29.67,10.0,South,18.4,25.3,N/A,,Clear,190,2012-11-22 01:35:00
7:55 PM,60.8,39.2,45,29.66,10.0,SSW,19.6,25.3,N/A,,Clear,200,2012-11-22 01:55:00
8:15 PM,60.8,39.2,45,29.66,10.0,SSW,21.9,-,N/A,,Clear,200,2012-11-22 02:15:00
8:35 PM,60.8,39.2,45,29.64,10.0,SSW,23.0,28.8,N/A,,Clear,200,2012-11-22 02:35:00
8:55 PM,59.0,39.2,48,29.64,10.0,SSW,20.7,-,N/A,,Clear,210,2012-11-22 02:55:00
9:15 PM,59.0,39.2,48,29.64,10.0,SSW,20.7,26.5,N/A,,Clear,210,2012-11-22 03:15:00
9:35 PM,57.2,39.2,51,29.64,10.0,SSW,21.9,27.6,N/A,,Clear,200,2012-11-22 03:35:00
9:55 PM,57.2,39.2,51,29.64,10.0,SSW,20.7,-,N/A,,Clear,200,2012-11-22 03:55:00
10:15 PM,57.2,39.2,51,29.63,10.0,SSW,20.7,26.5,N/A,,Clear,200,2012-11-22 04:15:00
10:35 PM,57.2,39.2,51,29.62,10.0,SSW,21.9,-,N/A,,Clear,200,2012-11-22 04:35:00
10:55 PM,57.2,37.4,48,29.60,10.0,SSW,23.0,-,N/A,,Clear,200,2012-11-22 04:55:00
11:15 PM,57.2,37.4,48,29.59,10.0,SSW,25.3,32.2,N/A,,Clear,210,2012-11-22 05:15:00
11:35 PM,57.2,37.4,48,29.58,10.0,SW,27.6,33.4,N/A,,Clear,220,2012-11-22 05:35:00
11:55 PM,57.2,35.6,44,29.59,10.0,SW,25.3,34.5,N/A,,Clear,220,2012-11-22 05:55:00